Regional Weather Roundup
Issued by NWS Goodland, KS

Home | Current Version | Previous Version | Graphics & Text | Print | Product List | Glossary On
Versions: 1 2 3 4 5 6 7 8 9 10 11 12 13 14 15 16 17 18 19 20 21 22 23 24 25 26 27 28 29 30 31 32 33 34 35 36 37 38 39 40 41 42 43 44 45 46 47 48 49 50
212
ASUS43 KGLD 250859
RWRGLD

GOODLAND FORECAST AREA HOURLY WEATHER ROUNDUP
NATIONAL WEATHER SERVICE GOODLAND KS
300 AM MDT SUN JUN 25 2017

...OFFICIAL OBSERVATIONS...

CITY           SKY/WX    TMP DP  RH WIND       PRES   REMARKS
GOODLAND KS    CLOUDY    55  51  86 SE16      30.32F
HILL CITY KS   CLOUDY    60  59  96 SW3       30.30R
IMPERIAL NEB   PTCLDY    52  45  77 CALM      30.33R
MCCOOK NEB     PTCLDY    51  48  89 W6        30.30R
AKRON CO       CLOUDY    56  51  84 S10       30.33S
BURLINGTON CO  CLOUDY    56  52  86 SE12      30.33F
LIMON CO       PTCLDY    53  47  79 SE7       30.36F
$$

...UNOFFICIAL OBSERVATIONS...

CITY           SKY/WX    TMP DP  RH WIND       PRES   REMARKS
LENORA KS        N/A     58  32  37 MISG        N/A
NORTON KS      PTCLDY    54  43  66 CALM      30.27F
SHARON SPRINGS   N/A     59  52  76 NE7G15      N/A
TRENTON NEB      N/A     57  32  39 CALM        N/A
KIT CARSON CO    N/A     56  49  79 MISG        N/A
YUMA CO        FAIR      52  50  93 SE6       30.32F
$$




USA.gov is the U.S. government's official web portal to all federal, state and local government web resources and services.